sat.trackr.live / text

‹ back to catalog

STARLINK-35341

NORAD 66027 · 2025-232Y

PAYLOAD ACTIVE UNKNOWN

§ Identity

Operator
Country
US
Launch date
2025-10-16
Launch site
AFETR
Launch vehicle
Mass (kg)
RCS (m²)

Purposes: comms

External: N2YO · Heavens-Above · Gunter

§ Orbital elements

Epoch: 2026-05-25T04:27:13.574592Z

Period
93.92 min
Inclination
53.1580°
Eccentricity
0.0001436
Mean motion
15.33288171 rev/d
Perigee alt
465.0 km
Apogee alt
467.0 km
Semi-major
6,844.1 km
B*
1.2203e-2
RAAN
108.8527°
Arg perigee
62.4804°
Mean anomaly
297.6344°
Rev number
3,514

§ Raw data

STARLINK-353411 66027U 25232Y   26145.18557378  .00420828  00000+0  12203-1 0  99992 66027  53.1580 108.8527 0001436  62.4804 297.6344 15.33288171 35141

JSON: /api/v1/satellites/66027 · /tle

For live sub-satellite position, see the globe view (requires WebGL).

§ Visibility from observer

Set your observer location to see the next 7 days of passes ≥ 10°. The values pass through the URL so the page stays shareable.

No JS? Fill the form by hand. The geolocation button needs JavaScript.